CW5234 Weather Reports


time (UTC)temp
C
wind
direction
speed
KPH
gust
KPH
rain 1hr
cm
rain 24hr
cm
rain mn
cm
humidity
%
barometer
mb
20260505065923 15 228 1.6 3.2 0.00 0.00 0.00 64 1011.6
20260505064924 15 124 1.6 3.2 0.00 0.00 0.00 64 1011.6
20260505064021 15 180 0.0 1.6 0.00 0.00 0.00 65 1011.6
20260505063121 15 157 0.0 4.8 0.00 0.00 0.00 65 1011.6
20260505062121 15 135 0.0 0.0 0.00 0.00 0.00 63 1011.6
20260505061122 15 135 1.6 1.6 0.00 0.00 0.00 65 1011.6
20260505060124 15 157 1.6 3.2 0.00 0.00 0.00 65 1011.5
20260505055122 15 202 0.0 1.6 0.00 0.00 0.00 64 1011.6
20260505054122 15 157 1.6 4.8 0.00 0.00 0.00 65 1011.6
20260505052222 14 157 1.6 3.2 0.00 0.00 0.00 65 1011.8
20260505050221 13 157 0.0 3.2 0.00 0.00 0.00 67 1011.8
20260505040423 13 157 0.0 1.6 0.00 0.00 0.00 60 1011.8
20260505035429 13 157 1.6 3.2 0.00 0.00 0.00 60 1011.9
20260505033428 13 157 0.0 1.6 0.00 0.00 0.00 60 1011.8
20260505032429 13 202 0.0 1.6 0.00 0.00 0.00 59 1011.9
20260505031430 13 225 0.0 0.0 0.00 0.00 0.00 59 1011.9
20260505030527 13 180 0.0 1.6 0.00 0.00 0.00 58 1012.0
20260505025530 14 180 0.0 0.0 0.00 0.00 0.00 58 1012.1
20260505024626 14 180 0.0 3.2 0.00 0.00 0.00 56 1012.2
20260505023629 15 180 1.6 1.6 0.00 0.00 0.00 56 1012.2
20260505022629 15 180 1.6 3.2 0.00 0.00 0.00 55 1012.2
20260505021630 15 180 0.0 3.2 0.00 0.00 0.00 53 1012.2
20260505020727 15 180 0.0 1.6 0.00 0.00 0.00 53 1012.1
20260505015728 15 180 0.0 0.0 0.00 0.00 0.00 52 1012.2
20260505014827 15 180 1.6 1.6 0.00 0.00 0.00 50 1012.2
20260505013828 16 180 0.0 0.0 0.00 0.00 0.00 50 1012.0
20260505012927 16 180 0.0 1.6 0.00 0.00 0.00 48 1012.1
20260505011930 16 180 0.0 1.6 0.00 0.00 0.00 49 1011.9
20260505010929 16 180 0.0 1.6 0.00 0.00 0.00 47 1011.8
20260505005028 17 180 1.6 1.6 0.00 0.00 0.00 45 1011.5
20260505004030 17 180 0.0 1.6 0.00 0.00 0.00 44 1011.5
20260505003128 18 180 1.6 1.6 0.00 0.00 0.00 43 1011.4
20260505002129 18 180 1.6 3.2 0.00 0.00 0.00 41 1011.3
20260505001128 18 180 1.6 1.6 0.00 0.00 0.00 40 1011.3
20260505000129 19 157 1.6 1.6 0.00 0.00 0.00 39 1011.2
20260504235127 20 180 0.0 3.2 0.00 0.00 0.00 37 1011.1
20260504234128 20 180 1.6 1.6 0.00 0.00 0.00 38 1010.9
20260504231128 20 183 3.2 6.4 0.00 0.00 0.00 36 1010.8
20260504230130 21 270 1.6 4.8 0.00 0.00 0.00 36 1010.7
20260504225227 21 182 1.6 4.8 0.00 0.00 0.00 36 1010.7
20260504223228 21 138 3.2 9.7 0.00 0.00 0.00 34 1010.7
20260504222229 22 205 3.2 9.7 0.00 0.00 0.00 33 1010.7
20260504221228 22 120 4.8 9.7 0.00 0.00 0.00 32 1010.7
20260504220230 23 165 3.2 4.8 0.00 0.00 0.00 31 1010.7
20260504215228 23 189 1.6 4.8 0.00 0.00 0.00 31 1010.8
20260504214229 24 149 4.8 6.4 0.00 0.00 0.00 30 1010.8
20260504213327 24 154 0.0 3.2 0.00 0.00 0.00 31 1010.9
20260504212329 23 233 1.6 4.8 0.00 0.00 0.00 31 1010.9
20260504211427 23 157 4.8 9.7 0.00 0.00 0.00 31 1010.9
20260504210428 23 147 1.6 4.8 0.00 0.00 0.00 32 1010.8
20260504205428 23 194 4.8 8.0 0.00 0.00 0.00 31 1010.8
20260504203528 23 199 0.0 9.7 0.00 0.00 0.00 29 1010.8
20260504202528 23 144 0.0 1.6 0.00 0.00 0.00 30 1011.0
20260504200529 23 303 3.2 4.8 0.00 0.00 0.00 31 1011.2
20260504195628 23 119 4.8 12.9 0.00 0.00 0.00 31 1011.0
20260504194627 23 169 3.2 6.4 0.00 0.00 0.00 30 1011.1
20260504193627 23 127 4.8 8.0 0.00 0.00 0.00 30 1011.0
20260504192629 23 283 0.0 4.8 0.00 0.00 0.00 31 1011.3
20260504191627 22 180 4.8 9.7 0.00 0.00 0.00 31 1011.4
20260504190628 23 257 1.6 9.7 0.00 0.00 0.00 31 1011.5
20260504185628 23 147 6.4 11.3 0.00 0.00 0.00 30 1011.8
20260504184627 22 177 4.8 9.7 0.00 0.00 0.00 31 1012.0
20260504183627 22 294 3.2 6.4 0.00 0.00 0.00 31 1012.0
20260504180727 22 185 1.6 6.4 0.00 0.00 0.00 32 1012.5
20260504175728 22 186 4.8 9.7 0.00 0.00 0.00 32 1012.8
20260504174729 21 155 3.2 11.3 0.00 0.00 0.00 33 1012.7
20260504173728 21 180 1.6 3.2 0.00 0.00 0.00 33 1012.9
20260504172728 21 134 4.8 6.4 0.00 0.00 0.00 33 1013.0
20260504171728 21 261 3.2 11.3 0.00 0.00 0.00 32 1013.0
20260504150827 17 127 3.2 6.4 0.00 0.00 0.00 43 1014.7
20260504140928 15 255 0.0 4.8 0.00 0.00 0.00 54 1015.0
20260504100130 7 180 1.6 3.2 0.00 0.00 0.00 64 1015.4
20260504081426 7 202 0.0 0.0 0.00 0.00 0.00 59 1015.3
20260504080428 7 180 0.0 0.0 0.00 0.00 0.00 60 1015.3